[[{"header":{"parameterUnit":"m.s-1","parameterCategory":1,"la1":30.2991,"la2":30.254,"lo1":-89.0895,"lo2":-89.0444,"dy":0.0017,"dx":0.0017,"nx":28,"ny":28,"refTime":"2025-06-14T03:00:00:Z","depth":0,"parameterNumber":2,"parameterNumberName":"U-component_of_WINDS"},"data":[0,0,0,0,0,0,0,0,0,0,0,0,0,0,0,0,0,0,0,0,0,0,0,0,0,0,0,0,0,0,0,0,0,0,0,0,0,0,0,0,0,0,0,0,0,0,0,0,0,0,0,0,0,0,0,0,0,0,2.422,2.4221,0,2.4282,2.4282,2.4283,2.4263,2.4261,2.426,2.4259,2.4323,2.4326,2.4329,0,0,0,0,0,0,0,0,0,0,0,0,0,2.4083,2.4086,2.422,2.4221,2.4221,2.4282,2.4282,2.4283,2.4263,2.4261,2.426,2.4258,2.4322,2.4326,2.4329,0,0,0,0,0,0,0,0,0,0,0,0,0,2.4143,2.4086,2.422,2.4218,2.4219,2.4281,2.4283,2.4284,2.4263,2.4261,2.4259,2.4257,2.4321,2.4325,2.433,2.4397,0,0,2.4343,2.4345,0,0,0,0,0,0,0,0,2.414,2.4148,2.4218,2.4219,2.4219,2.4262,2.4258,2.4322,2.4264,2.4247,2.4259,2.4256,2.4305,2.431,2.4326,2.44,2.4403,2.4344,2.4346,2.4348,2.4349,0,0,0,0,0,0,0,2.4136,2.4146,2.4244,2.4219,2.422,2.4214,2.4221,2.427,2.4286,2.4248,2.4247,2.4254,2.4305,2.4322,2.4328,2.4404,2.4343,2.4347,2.435,2.4352,2.4533,2.4535,0,0,0,0,0,0,2.4131,2.4142,2.4242,2.4246,2.4174,2.4219,2.4226,2.4251,2.4286,2.4289,2.4256,2.4253,2.4315,2.4322,2.433,2.4409,2.4348,2.4352,2.4355,2.4531,2.4534,2.4536,0,0,0,0,0,0,2.4128,2.414,2.424,2.4194,2.4206,2.4223,2.4251,2.4253,2.427,2.4291,2.4294,2.4271,2.4314,2.4324,2.438,2.4411,2.4354,2.4358,2.4529,2.4532,2.4535,2.4569,0,0,0,0,0,0,2.4125,2.4139,2.4166,2.4195,2.4209,2.4289,2.4253,2.4256,2.4278,2.4275,2.4306,2.4309,2.4313,2.4373,2.4384,2.4416,2.4362,2.4526,2.453,2.4534,2.4565,2.4573,2.4579,0,0,0,0,0,2.412,2.4174,2.4167,2.4179,2.4242,2.4291,2.4299,2.4302,2.4281,2.4306,2.432,2.4308,2.4406,2.4379,2.4391,2.4425,2.4524,2.4529,2.4534,2.4561,2.4571,2.4579,0,0,0,0,0,0,2.4149,2.4177,2.4171,2.4236,2.4261,2.4288,2.432,2.4313,2.4345,2.4341,2.4344,2.4351,2.4408,2.4422,2.4392,2.449,2.4462,2.4469,2.4479,2.4488,2.4495,2.4489,2.4366,0,0,0,0,0,2.4163,2.42,2.4223,2.4278,2.4291,2.4304,2.4325,2.4325,2.4352,2.4363,2.438,2.4406,2.4442,2.4466,2.4501,2.4567,2.4572,2.4596,2.4603,2.4609,2.4615,2.4648,2.4658,2.4552,2.4552,2.4552,0,0,2.4192,2.4212,2.4236,2.4285,2.4304,2.4342,2.4313,2.4355,2.4383,2.4369,2.4422,2.4436,2.4465,2.4526,2.4554,2.454,2.4645,2.4615,2.462,2.4622,2.4654,2.4664,2.4673,2.4555,2.4555,2.4554,0,0,2.4264,2.4284,2.433,2.435,2.438,2.4387,2.4399,2.4426,2.4434,2.4488,2.4477,2.4511,2.4574,2.4594,2.4613,2.469,2.468,2.4702,2.4739,2.4771,2.4779,2.4786,2.4811,2.4821,2.4708,2.4708,2.4708,0,2.4296,2.4353,2.4355,2.4398,2.4418,2.4407,2.4453,2.4472,2.4512,2.4526,2.451,2.4587,2.4607,2.467,2.4689,2.4705,2.4716,2.4697,2.4778,2.4785,2.4792,2.4816,2.4825,2.471,2.471,2.471,2.4709,0,2.439,2.4429,2.4463,2.45,2.4525,2.457,2.4578,2.4603,2.46,2.4609,2.4663,2.4685,2.4723,2.4738,2.4737,2.4801,2.4791,2.4777,2.4747,2.4804,2.4826,2.4836,2.4713,2.4712,2.4712,2.4711,0,0,2.4482,2.4518,2.453,2.4546,2.4577,2.4607,2.465,2.4686,2.4706,2.4734,2.4769,2.4822,2.4807,2.4828,2.4829,2.4858,2.4914,2.484,2.484,2.485,2.4983,2.4992,2.5003,2.4908,2.491,2.4912,2.4979,0,2.4554,2.4629,2.4631,2.4699,2.4734,2.4723,2.476,2.4783,2.4792,2.4823,2.4833,2.4869,2.485,2.4862,2.489,2.4901,2.494,2.4897,2.4939,2.4941,2.493,2.5015,2.5025,2.5088,2.4989,2.499,2.4991,0,2.4648,2.4677,2.4748,2.4771,2.4786,2.482,2.4851,2.4882,2.4906,2.4911,2.4934,2.493,2.4972,2.4943,2.5001,2.4971,2.4988,2.4997,2.4999,2.5001,2.4968,2.5017,2.5108,2.5117,2.5005,2.5004,2.5003,0,2.4704,2.4761,2.481,2.4824,2.4854,2.4877,2.489,2.4913,2.4934,2.4962,2.4975,2.5008,2.5026,2.5051,2.5056,2.5034,2.5113,2.5084,2.5116,2.5116,2.5132,2.513,2.5225,2.5147,2.5147,2.5147,2.5147,0,2.4783,2.4826,2.4835,2.4865,2.4913,2.4915,2.4962,2.4974,2.4994,2.5025,2.5019,2.5048,2.5054,2.5084,2.5088,2.5134,2.5143,2.5146,2.5146,2.5146,2.5145,2.5155,2.515,2.5149,2.5149,2.5148,2.5148,0,2.4853,2.4861,2.4913,2.4936,2.4943,2.4977,2.4996,2.5024,2.5033,2.5072,2.5082,2.5094,2.513,2.5137,2.518,2.5182,2.5235,2.5233,2.5227,2.5226,2.5256,2.5252,2.5359,2.5372,2.5288,2.5289,2.529,0,2.4902,2.4934,2.496,2.498,2.4994,2.5028,2.5048,2.5051,2.5073,2.5102,2.5126,2.5161,2.5188,2.5245,2.5258,2.5289,2.5286,2.5321,2.529,2.5288,2.5283,2.528,2.5282,2.5326,2.5327,2.5328,2.5328,0,2.4986,2.4988,2.5018,2.5048,2.5073,2.5097,2.512,2.5137,2.5144,2.5168,2.5203,2.5224,2.5267,2.53,2.5331,2.5345,2.5337,2.5338,2.5347,2.5345,2.5339,2.534,2.524,2.5335,2.5335,2.5334,2.5334,2.5333,2.5045,2.5073,2.5094,2.5127,2.5144,2.5166,2.5192,2.5203,2.5233,2.5266,2.5267,2.5305,2.5327,2.5368,2.5383,2.5412,2.5401,2.5415,2.5417,2.542,2.5421,2.5336,2.5419,2.5418,2.5418,2.5418,2.5418,0,2.5127,2.514,2.517,2.5202,2.5227,2.5218,2.5242,2.5264,2.5297,2.5318,2.5345,2.5384,2.5416,2.5431,2.5462,2.5483,2.548,2.549,2.5488,2.549,2.5431,2.5419,2.5492,2.5492,2.5492,2.5492,2.5492,2.5492,2.5172,2.5217,2.5221,2.5274,2.5287,2.5323,2.5338,2.5357,2.5373,2.5417,2.5443,2.5453,2.5471,2.5503,2.5531,2.5535,2.5545,2.5557,2.5559,2.5503,2.5495,2.5488,2.5476,2.556,2.556,2.5616,2.5616,2.5616]},{"header":{"parameterUnit":"m.s-1","parameterCategory":1,"la1":30.2991,"la2":30.254,"lo1":-89.0895,"lo2":-89.0444,"dy":0.0017,"dx":0.0017,"nx":28,"ny":28,"refTime":"2025-06-14T03:00:00:Z","depth":0,"parameterNumber":3,"parameterNumberName":"V-component_of_WINDS"},"data":[0,0,0,0,0,0,0,0,0,0,0,0,0,0,0,0,0,0,0,0,0,0,0,0,0,0,0,0,0,0,0,0,0,0,0,0,0,0,0,0,0,0,0,0,0,0,0,0,0,0,0,0,0,0,0,0,0,0,2.0466,2.0467,0,2.0571,2.0572,2.0573,2.0578,2.0577,2.0575,2.0574,2.0679,2.0683,2.0687,0,0,0,0,0,0,0,0,0,0,0,0,0,2.0266,2.027,2.0466,2.0467,2.0468,2.0571,2.0572,2.0574,2.0578,2.0576,2.0575,2.0574,2.0678,2.0683,2.0688,0,0,0,0,0,0,0,0,0,0,0,0,0,2.036,2.0271,2.0466,2.0483,2.0486,2.057,2.0572,2.0574,2.0578,2.0576,2.0575,2.0573,2.0677,2.0682,2.0688,2.0762,0,0,2.0706,2.0709,0,0,0,0,0,0,0,0,2.0355,2.0368,2.0479,2.0482,2.0485,2.0559,2.054,2.0637,2.0579,2.0543,2.0574,2.0572,2.0641,2.065,2.0673,2.0767,2.0771,2.0707,2.071,2.0713,2.0715,0,0,0,0,0,0,0,2.0348,2.0363,2.0507,2.0481,2.0484,2.0485,2.0496,2.0559,2.0601,2.0546,2.0547,2.0559,2.0642,2.0668,2.0676,2.0773,2.0707,2.0712,2.0716,2.0718,2.093,2.0932,0,0,0,0,0,0,2.0339,2.0358,2.0504,2.051,2.0414,2.049,2.0502,2.0537,2.06,2.0608,2.0561,2.0559,2.0658,2.0669,2.068,2.0769,2.0713,2.0719,2.0722,2.0928,2.0931,2.0933,0,0,0,0,0,0,2.0335,2.0352,2.05,2.0434,2.0453,2.0495,2.0534,2.054,2.0566,2.0611,2.0619,2.0579,2.0657,2.0671,2.0741,2.0773,2.0721,2.0727,2.0926,2.0929,2.0932,2.0949,0,0,0,0,0,0,2.0329,2.035,2.038,2.0435,2.0457,2.0561,2.0536,2.0544,2.0576,2.0575,2.0631,2.0638,2.0657,2.0732,2.0747,2.078,2.0731,2.0923,2.0927,2.0931,2.0946,2.0952,2.0958,0,0,0,0,0,2.0322,2.038,2.0381,2.0399,2.0494,2.0563,2.0575,2.0596,2.0579,2.0608,2.0637,2.0636,2.0767,2.0739,2.0756,2.0791,2.0921,2.0926,2.0931,2.0943,2.0951,2.0958,0,0,0,0,0,0,2.0327,2.0388,2.039,2.0468,2.051,2.0563,2.0601,2.0604,2.0652,2.0648,2.0672,2.0684,2.0754,2.0779,2.0748,2.0865,2.0842,2.085,2.0846,2.0854,2.086,2.0852,2.0736,0,0,0,0,0,2.0337,2.0389,2.0439,2.0503,2.0524,2.0559,2.0589,2.0602,2.0646,2.0664,2.0698,2.0741,2.0791,2.0824,2.0873,2.095,2.0961,2.0982,2.0988,2.0993,2.0999,2.104,2.105,2.0949,2.0948,2.0948,0,0,2.0359,2.0399,2.043,2.0505,2.0539,2.059,2.0574,2.0629,2.0667,2.0672,2.074,2.0767,2.0815,2.0889,2.0923,2.0912,2.103,2.0999,2.1002,2.1006,2.1046,2.1056,2.1064,2.0952,2.0951,2.0951,0,0,2.0425,2.0461,2.0518,2.0552,2.0604,2.0627,2.064,2.0693,2.0711,2.078,2.0784,2.0829,2.0916,2.095,2.0979,2.1056,2.1057,2.1071,2.1103,2.1142,2.115,2.1158,2.1184,2.1194,2.1078,2.1078,2.1078,0,2.0446,2.0524,2.0546,2.0602,2.0634,2.0641,2.0698,2.073,2.0795,2.0817,2.0804,2.0913,2.0946,2.1027,2.1045,2.1069,2.1084,2.1065,2.1148,2.1155,2.1162,2.1188,2.1198,2.1079,2.1079,2.1079,2.1079,0,2.0546,2.06,2.064,2.0703,2.074,2.0796,2.0825,2.0859,2.0868,2.0891,2.096,2.1001,2.1057,2.1077,2.1087,2.1159,2.1151,2.1143,2.112,2.1173,2.1197,2.1207,2.1081,2.1081,2.108,2.108,0,0,2.0619,2.0693,2.0707,2.0735,2.0792,2.0834,2.089,2.0946,2.0974,2.1018,2.1064,2.1137,2.113,2.1162,2.1175,2.121,2.1267,2.1198,2.1199,2.1208,2.1348,2.1353,2.1365,2.1268,2.127,2.1272,2.1344,0,2.0691,2.0791,2.0811,2.0897,2.0946,2.0953,2.1001,2.1041,2.1064,2.1108,2.1133,2.1184,2.1171,2.1191,2.1225,2.1253,2.1296,2.1248,2.131,2.1312,2.1297,2.1378,2.1384,2.145,2.1353,2.1355,2.1356,0,2.0788,2.0835,2.0925,2.0975,2.0997,2.104,2.1092,2.1135,2.1179,2.1193,2.1229,2.1238,2.1294,2.1269,2.1346,2.1313,2.134,2.1357,2.136,2.1366,2.1337,2.1385,2.1472,2.1481,2.1372,2.137,2.1369,0,2.0831,2.0916,2.0982,2.1006,2.1065,2.1095,2.1121,2.1164,2.1196,2.1241,2.1262,2.1313,2.134,2.1379,2.1401,2.138,2.1476,2.1452,2.1488,2.1488,2.1508,2.1506,2.1599,2.1526,2.1526,2.1525,2.1525,0,2.0908,2.0963,2.1002,2.1042,2.1103,2.1125,2.1185,2.1211,2.1249,2.1293,2.1301,2.1342,2.1369,2.1413,2.1431,2.1491,2.1504,2.1516,2.152,2.1515,2.1513,2.1532,2.1528,2.1528,2.1527,2.1527,2.1526,0,2.0967,2.0995,2.1066,2.1116,2.113,2.1173,2.1216,2.1254,2.1277,2.1333,2.1347,2.1382,2.1435,2.146,2.1526,2.1537,2.1605,2.1607,2.1591,2.1592,2.1626,2.1622,2.1734,2.1749,2.1666,2.1667,2.1667,0,2.1014,2.1057,2.1112,2.1142,2.1169,2.1218,2.125,2.1274,2.1307,2.136,2.1392,2.1445,2.1489,2.1572,2.1603,2.1652,2.1654,2.169,2.1662,2.1655,2.1653,2.165,2.1654,2.1695,2.1695,2.1696,2.1697,0,2.1095,2.1106,2.1153,2.1205,2.1243,2.1285,2.1326,2.135,2.1379,2.1416,2.147,2.1504,2.1571,2.1623,2.1674,2.17,2.1703,2.1705,2.1716,2.1711,2.17,2.1706,2.1604,2.1703,2.1702,2.1702,2.1701,2.1701,2.1149,2.1186,2.1231,2.1282,2.1315,2.1353,2.1391,2.1419,2.1464,2.1521,2.1531,2.1588,2.163,2.17,2.1727,2.1771,2.1763,2.1779,2.1783,2.1786,2.1787,2.1693,2.1781,2.178,2.178,2.178,2.178,0,2.1229,2.1258,2.1305,2.1362,2.1402,2.1402,2.1447,2.148,2.1531,2.157,2.1613,2.1674,2.1724,2.1759,2.1809,2.1838,2.184,2.185,2.1848,2.1853,2.1792,2.1777,2.1847,2.1847,2.1847,2.1847,2.1847,2.1847,2.1276,2.1339,2.1355,2.1434,2.1463,2.1519,2.1544,2.1579,2.161,2.1679,2.1721,2.1743,2.178,2.1833,2.1878,2.1887,2.1905,2.1915,2.1923,2.1865,2.1858,2.1851,2.1838,2.1919,2.1919,2.1981,2.1981,2.1982]}]]